BRO-15

operational
NORAD ID: 60553 Int'l Des: 2024-149 Owner: UNSEEN Country: F
LEOCIRCULARRETROGRADESSO

Über BRO-15

Beschreibung wird geladen...

Live-Position

3D-Globus wird geladen...

Nächste Überflüge

Höhenverlauf

Altitude vs Time

uPlot chart will show altitude changes over time

Zweizeiliger Elementsatz

1 60553U 24149CP 26062.16424015 .00001639 00000-0 15165-3 0 9998
2 60553 97.6878 139.5373 0009661 85.0581 275.1743 14.95874124 84158
Epoch: 3. März 2026 • Age: 24 hours

Aktueller Status

Höhe 583.7 km
Geschwindigkeit 7.58 km/s
Subsatellitenpunkt 54.26°N, 172.89°E
Startdatum 16. Aug. 2024
Alter 1.5 years
Typ other

Technische Details

Klassifizierung Payload
Masse 15.00 kg
Trockenmasse 15.00 kg
Gesamtmasse 15.00 kg
Länge 0.40 m
Durchmesser 0.20 m
Spannweite 0.40 m
Form Box
Hersteller GOMSP
Bus-Typ Cubesat 8U
Phasenstatus In Orbit
Besitzer/Staat UNSEEN/F

Große Konstellationen

Loading constellations...